This demonstration page uses our WeatherBlox Daily Observations layout. Learn more.

Left ArrowRight Arrow

Hourly Observations for April 20, 2017

Temp ( °F °C ) Dew Point ( °F °C ) Humidity (%) Winds ( mph kmh ) Pressure ( in mb ) Visibility ( mi km ) Precip ( " mm )
12:53 am 00:53 Clear 37 2.8 31 -0.6 79 79 ENE 5 7 30.14 1021 10 16 0.00 0.00
1:53 am 01:53 Clear 36 2.2 31 -0.6 82 82 ENE 8 13 30.13 1020 10 16 0.00 0.00
2:53 am 02:53 Clear 34 1.1 31 -0.6 89 89 ENE 6 9 30.13 1020 10 16 0.00 0.00
3:53 am 03:53 Clear 32 0 29 -1.7 88 88 ENE 9 15 30.12 1020 10 16 0.00 0.00
4:53 am 04:53 Clear 32 0 29 -1.7 88 88 E 7 11 30.11 1020 10 16 0.00 0.00
5:53 am 05:53 Clear 30 -1.1 28 -2.2 92 92 E 6 9 30.11 1020 10 16 0.00 0.00
6:53 am 06:53 Sunny 31 -0.6 28 -2.2 89 89 ENE 7 11 30.10 1019 10 16 0.00 0.00
7:53 am 07:53 Sunny 36 2.2 31 -0.6 82 82 Calm 30.10 1019 10 16 0.00 0.00
8:53 am 08:53 Sunny 43 6.1 35 1.7 74 74 ENE 7 11 30.09 1019 10 16 0.00 0.00
9:53 am 09:53 Sunny 49 9.4 38 3.3 66 66 ENE 7 11 30.06 1018 10 16 0.00 0.00
10:53 am 10:53 Sunny 59 15 39 3.9 48 48 ENE 10 17 30.03 1017 10 16 0.00 0.00
11:53 am 11:53 Sunny 66 18.9 30 -1.1 26 26 SE 9 15 29.99 1016 10 16 0.00 0.00
12:22 pm 12:22 Sunny 66 19 30 -1 26 26 WSW 15 24 29.88 1012 10 16 0.00 0.00
12:53 pm 12:53 Sunny 66 18.9 29 -1.7 25 25 VRB 7 11 29.97 1015 10 16 0.00 0.00
1:53 pm 13:53 Mostly Sunny 67 19.4 27 -2.8 22 22 SE 12 19 29.94 1014 10 16 0.00 0.00
2:53 pm 14:53 Mostly Sunny 68 20 23 -5 18 18 VRB 7 11 29.94 1014 10 16 0.00 0.00
3:53 pm 15:53 Mostly Cloudy 67 19.4 24 -4.4 20 20 SSE 8 13 29.92 1013 10 16 0.00 0.00
4:53 pm 16:53 Sunny 68 20 25 -3.9 20 20 S 8 13 29.91 1013 10 16 0.00 0.00
5:53 pm 17:53 Mostly Cloudy 65 18.3 28 -2.2 25 25 SE 16 26 29.92 1013 10 16 0.00 0.00
6:53 pm 18:53 Mostly Sunny 65 18.3 29 -1.7 26 26 SE 14 22 29.91 1013 10 16 0.00 0.00
7:53 pm 19:53 Sunny 60 15.6 30 -1.1 32 32 SE 13 20 29.92 1013 10 16 0.00 0.00
8:53 pm 20:53 Clear 54 12.2 30 -1.1 40 40 S 6 9 29.95 1014 10 16 0.00 0.00
9:53 pm 21:53 Mostly Clear 58 14.4 30 -1.1 35 35 S 10 17 29.96 1015 10 16 0.00 0.00
10:53 pm 22:53 Mostly Cloudy 56 13.3 33 0.6 42 42 SSW 10 17 29.96 1015 10 16 0.00 0.00
11:53 pm 23:53 Cloudy 55 12.8 34 1.1 45 45 S 9 15 29.95 1014 10 16 0.00 0.00

Powered by AerisWeather